TimePDT,TemperatureF,Dew PointF,Humidity,Sea Level PressureIn,VisibilityMPH,Wind Direction,Wind SpeedMPH,Gust SpeedMPH,PrecipitationIn,Events,Conditions,WindDirDegrees,DateUTC
12:53 AM,41.0,39.0,93,30.10,10.0,Calm,Calm,-,N/A,,Clear,0,2013-09-19 07:53:00
1:53 AM,37.0,36.0,96,30.12,10.0,Calm,Calm,-,N/A,,Clear,0,2013-09-19 08:53:00
2:53 AM,36.0,35.1,97,30.12,10.0,Calm,Calm,-,N/A,,Clear,0,2013-09-19 09:53:00
3:53 AM,36.0,35.1,97,30.14,3.0,Calm,Calm,-,N/A,,Clear,0,2013-09-19 10:53:00
4:53 AM,37.9,37.0,97,30.14,10.0,North,4.6,-,N/A,,Clear,360,2013-09-19 11:53:00
5:53 AM,37.9,36.0,93,30.15,10.0,NE,3.5,-,N/A,,Clear,40,2013-09-19 12:53:00
6:53 AM,39.9,39.0,97,30.17,10.0,NNE,4.6,-,N/A,,Clear,30,2013-09-19 13:53:00
7:53 AM,46.9,44.1,90,30.17,10.0,North,3.5,-,N/A,,Clear,360,2013-09-19 14:53:00
8:53 AM,52.0,44.1,74,30.17,10.0,NE,5.8,-,N/A,,Clear,40,2013-09-19 15:53:00
9:53 AM,55.9,45.0,67,30.17,10.0,NNE,6.9,-,N/A,,Clear,30,2013-09-19 16:53:00
10:53 AM,60.1,46.0,60,30.16,10.0,North,3.5,-,N/A,,Clear,360,2013-09-19 17:53:00
11:53 AM,63.0,46.0,54,30.14,10.0,ENE,5.8,-,N/A,,Clear,60,2013-09-19 18:53:00
12:53 PM,66.9,43.0,42,30.12,10.0,Variable,4.6,-,N/A,,Clear,0,2013-09-19 19:53:00
1:53 PM,68.0,39.9,36,30.10,10.0,SSE,6.9,-,N/A,,Clear,150,2013-09-19 20:53:00
2:53 PM,69.1,39.0,33,30.08,10.0,SE,6.9,-,N/A,,Clear,130,2013-09-19 21:53:00
3:53 PM,69.1,37.9,32,30.05,10.0,ESE,4.6,-,N/A,,Clear,110,2013-09-19 22:53:00
4:53 PM,69.1,37.9,32,30.03,10.0,South,4.6,-,N/A,,Clear,170,2013-09-19 23:53:00
5:53 PM,66.9,37.0,33,30.01,10.0,Calm,Calm,-,N/A,,Clear,0,2013-09-20 00:53:00
6:53 PM,61.0,41.0,48,30.01,10.0,NNE,8.1,-,N/A,,Clear,30,2013-09-20 01:53:00
7:53 PM,57.9,42.1,56,30.00,10.0,NE,8.1,-,N/A,,Clear,40,2013-09-20 02:53:00
8:53 PM,55.9,43.0,62,29.99,10.0,NNE,6.9,-,N/A,,Clear,30,2013-09-20 03:53:00
9:53 PM,55.0,42.1,62,29.98,10.0,NNE,8.1,-,N/A,,Clear,20,2013-09-20 04:53:00
10:53 PM,55.9,41.0,57,29.97,10.0,NNE,9.2,-,N/A,,Clear,20,2013-09-20 05:53:00
11:53 PM,54.0,41.0,62,29.95,10.0,NNE,9.2,-,N/A,,Clear,20,2013-09-20 06:53:00